Lapse_Rate
-1.9 -1.9 -1.9 -1.9 -1.9 -1.8 -1.7 -1.7 -1.9 -2.2 -2.1 -2.1 -2.1 -2.3 -2.1 -1.9 -1.0 2.8 5.3 5.6 3.7 2.0 2.3 6.0 6.2 7.2 8.1 7.4 7.2 7.8 6.5 6.5 6.5 6.5 6.5 6.0 6.5 5.6 5.1 5.3 6.2 5.6 5.8 4.1 2.5
-2.1 -2.2 -2.1 -2.1 -2.1 -2.0 -1.9 -2.1 -2.2 -2.3 -2.3 -2.3 -2.3 -2.5 -2.3 -2.3 3.5 5.0 3.8 2.5 1.4 1.5 5.0 5.9 7.0 7.7 6.7 7.1 6.5 6.0 6.5 6.5 6.5 6.3 6.5 6.2 5.8 5.6 6.1 5.7 5.7 5.9 4.4 3.1 2.7
-2.2 -2.3 -2.4 -2.5 -2.4 -2.2 -2.1 -2.2 -2.5 -2.4 -2.4 -2.5 -2.5 -2.5 -2.3 -1.7 5.3 6.4 0.3 1.2 1.2 1.8 5.0 6.4 7.2 7.5 6.2 6.7 6.2 6.0 6.5 6.5 6.4 6.0 5.9 6.1 5.7 6.0 5.8 6.5 4.9 4.7 4.4 1.2 1.5
-1.8 -2.2 -2.4 -2.6 -2.7 -2.5 -2.4 -2.5 -2.6 -2.6 -2.5 -2.5 -2.6 -2.8 -2.3 3.9 6.5 3.5 0.6 1.1 1.2 3.5 5.3 6.9 7.4 7.0 6.2 6.5 5.9 6.5 5.6 5.9 6.4 6.3 6.5 6.4 6.7 5.8 4.6 5.5 5.6 5.9 4.7 0.7 1.3
-1.9 -2.3 -2.5 -2.5 -2.7 -2.6 -2.5 -2.6 -2.7 -2.9 -2.8 -2.7 -2.8 -2.7 1.5 6.4 6.6 1.0 1.0 1.3 3.3 4.7 5.8 6.5 6.7 6.0 6.5 6.0 6.6 6.5 6.2 6.0 5.6 5.4 5.6 5.8 5.3 6.2 4.7 4.9 5.0 5.0 4.2 1.4 1.4
-1.5 -2.0 -2.4 -2.5 -2.5 -2.6 -2.6 -2.6 -2.5 -2.9 -3.1 -2.9 -2.8 -3.0 4.1 6.4 3.5 2.8 3.0 2.5 5.1 5.1 6.2 6.3 6.7 5.8 6.0 6.0 6.2 5.8 5.8 5.7 5.9 5.2 5.9 6.3 6.0 5.7 4.9 4.2 4.9 5.0 2.6 2.2 2.7
-1.1 -1.9 -2.4 -2.5 -2.5 -2.5 -2.6 -2.6 -2.6 -2.8 -3.0 -3.0 -2.7 0.7 5.7 5.5 3.7 2.9 2.9 3.8 4.1 5.1 6.2 7.1 5.7 6.5 6.3 6.4 5.5 6.3 6.5 6.4 6.0 5.3 6.4 6.3 6.5 6.5 4.1 5.4 4.1 4.7 3.8 3.0 2.8
-0.7 -1.5 -2.1 -2.3 -2.6 -2.8 -2.9 -2.8 -2.7 -2.8 -2.9 -2.7 -2.4 3.2 5.5 2.7 3.3 2.9 3.5 3.6 4.5 5.1 5.1 4.5 5.2 5.9 6.8 6.4 6.2 6.5 6.5 6.5 6.5 6.1 5.7 5.6 6.5 6.5 3.1 4.2 4.4 3.8 3.7 4.0 3.6
0.0 -0.8 -1.6 -1.9 -2.2 -2.5 -2.8 -2.8 -2.8 -2.5 -2.1 -2.3 1.4 5.1 6.5 2.0 4.2 4.8 5.1 5.6 4.6 4.8 4.6 5.1 5.7 6.3 6.1 6.5 6.5 6.5 6.5 6.5 6.5 6.0 6.5 6.5 6.5 6.6 5.9 5.7 3.9 3.2 3.4 3.7 3.7
0.5 -0.0 -0.8 -1.2 -1.4 -2.0 -2.5 -1.9 -0.9 -1.5 -1.1 2.5 5.7 6.8 4.9 5.2 3.1 4.1 4.9 5.7 6.2 5.1 5.6 5.8 5.2 6.5 6.5 6.5 6.5 6.5 6.5 6.5 6.5 6.5 6.5 6.5 6.5 6.5 4.2 4.9 4.0 4.7 4.6 4.3 4.0
1.3 0.7 0.2 -0.3 -0.7 -1.1 -1.6 1.8 4.2 3.7 6.3 5.0 5.7 6.0 5.5 2.5 3.2 2.9 4.4 5.8 7.0 6.5 6.5 5.8 6.5 6.5 6.5 6.5 6.5 6.5 6.5 6.5 6.5 6.5 6.5 6.5 6.5 6.5 5.3 4.8 5.3 5.1 5.3 4.5 3.2
3.2 2.3 1.4 0.6 -0.1 -0.3 -0.3 4.7 2.2 2.7 5.9 5.2 4.9 5.6 5.6 3.3 5.2 3.6 4.4 5.5 6.2 6.5 6.2 6.5 6.5 6.5 6.5 6.5 6.5 6.5 6.5 6.5 6.5 6.5 6.5 6.5 6.5 6.5 6.5 6.2 5.8 5.7 5.5 5.1 4.3
3.4 2.7 2.0 1.4 0.8 1.1 3.5 2.4 1.9 3.2 6.4 6.3 5.4 5.9 5.1 3.5 5.5 4.2 3.7 5.9 6.3 6.5 6.5 6.5 6.5 6.5 6.5 6.5 6.5 6.5 6.5 6.5 6.5 6.5 6.5 6.5 6.5 6.5 6.4 5.8 5.5 4.5 4.0 4.3 3.7
3.9 3.5 2.5 2.0 2.2 4.7 4.8 2.7 2.4 3.2 6.5 6.5 6.2 6.0 3.8 4.9 6.2 3.5 5.0 5.9 6.5 6.5 6.5 6.5 6.3 6.5 6.5 6.5 6.5 6.5 6.5 6.5 6.5 6.5 6.5 6.5 6.5 6.5 6.5 6.5 6.5 5.1 4.5 3.2 2.4
4.2 4.2 3.9 2.8 4.2 5.2 3.3 2.8 2.6 2.9 6.5 6.5 6.5 5.5 5.8 6.2 5.9 5.7 4.6 6.2 6.5 6.5 6.5 6.5 6.5 6.5 6.5 6.5 6.5 6.5 6.5 6.5 6.5 6.5 6.5 6.5 6.5 6.5 6.5 6.5 6.5 6.5 3.8 3.3 2.7
4.2 4.4 4.2 4.9 4.9 4.7 3.1 3.0 3.2 6.5 6.5 6.5 6.5 6.5 6.5 6.5 6.5 6.6 6.8 6.7 6.7 6.5 6.5 6.5 6.0 6.5 6.5 6.5 6.5 6.5 6.5 6.5 6.5 6.5 6.5 6.5 6.5 6.5 6.5 6.5 6.5 6.5 3.3 2.2 -0.4
4.4 4.4 4.1 7.0 6.9 4.2 3.7 4.7 6.5 6.5 6.5 6.5 6.5 6.5 6.5 6.5 6.5 6.5 6.5 6.5 6.5 6.5 6.5 6.5 6.5 6.5 6.4 6.5 6.5 6.5 6.5 6.5 6.5 6.5 6.5 6.5 6.5 6.5 6.5 6.5 6.5 6.5 3.1 2.3 -0.7
3.3 3.5 3.3 5.1 5.4 5.2 4.8 6.5 6.5 6.5 6.5 6.5 6.5 6.5 6.5 6.5 6.5 6.5 6.5 6.5 6.5 6.5 6.5 6.5 6.5 6.5 6.5 6.5 6.5 6.5 6.5 6.5 6.5 6.5 6.5 6.5 6.5 6.5 6.5 6.4 3.4 2.7 2.2 1.2 -0.5
3.3 3.5 3.8 3.7 4.2 4.0 6.1 6.5 6.5 6.5 6.5 6.5 6.5 6.5 6.5 6.5 6.5 6.5 6.5 6.5 6.5 6.5 6.5 6.5 6.5 6.5 6.5 6.5 6.5 6.5 6.5 6.5 6.5 6.5 6.5 6.5 6.5 6.5 6.5 6.5 6.5 5.7 3.5 2.2 1.3
3.9 4.7 4.5 4.1 3.7 4.9 6.5 6.5 6.5 6.5 6.5 6.5 6.5 6.5 6.5 6.5 6.5 6.5 6.5 6.5 6.5 6.5 6.5 6.5 6.5 6.5 6.5 6.5 6.5 6.5 6.5 6.5 6.5 6.5 6.5 6.5 6.5 6.5 6.5 6.5 6.5 6.5 6.1 2.9 1.5
4.7 6.0 4.6 2.5 4.3 6.2 6.5 6.5 6.5 6.8 6.7 6.5 6.5 6.5 6.5 6.5 6.5 6.5 6.5 6.5 6.5 6.5 6.5 6.5 6.5 6.5 6.5 6.5 6.5 6.5 6.5 6.5 6.5 6.5 6.5 6.5 6.5 6.5 6.5 6.5 6.5 6.5 4.9 3.9 1.9
6.0 6.5 3.6 4.5 6.5 6.5 6.5 6.5 6.2 6.5 6.5 6.5 6.5 6.5 6.5 6.5 6.5 6.5 6.5 6.5 6.4 6.4 6.5 6.5 6.5 6.5 6.5 6.5 6.5 6.5 6.5 6.5 6.5 6.5 6.5 6.5 6.5 6.5 6.5 6.5 6.5 6.4 3.6 3.0 1.1
6.6 6.3 4.0 4.8 6.5 6.5 6.5 6.5 6.5 6.5 6.5 6.5 6.5 6.5 6.5 6.5 6.5 6.5 6.5 6.2 5.9 6.5 6.5 6.5 6.5 6.5 6.5 6.5 6.5 6.5 6.5 6.5 6.5 6.5 6.5 6.5 6.5 6.5 6.5 6.5 5.5 5.7 3.9 2.3 1.9
6.4 6.5 6.3 6.0 6.2 6.5 6.5 6.5 6.5 6.4 6.5 6.5 6.5 6.4 6.5 6.5 6.5 6.5 6.5 6.5 5.9 6.3 4.8 5.8 6.5 6.5 6.5 6.5 6.5 6.5 6.5 6.5 6.5 6.5 6.5 6.5 6.5 6.5 6.5 6.5 6.5 5.9 5.1 2.3 1.4
6.7 6.5 6.0 6.5 6.5 6.5 6.5 6.5 6.5 6.5 6.5 6.4 6.5 6.5 6.5 6.5 6.5 6.5 6.5 6.5 6.3 6.3 6.4 6.5 6.5 6.5 6.5 6.5 6.5 6.5 6.5 6.5 6.5 6.5 6.5 6.5 6.5 6.5 6.5 6.5 6.5 6.0 5.2 5.3 4.6
6.8 6.5 6.4 6.5 6.4 6.5 6.5 6.5 6.5 6.5 6.5 6.5 6.5 6.5 6.5 6.5 6.5 6.5 6.5 6.5 6.5 6.5 6.5 6.5 6.5 6.5 6.5 6.5 6.5 6.5 6.5 6.5 6.5 6.5 6.5 6.5 6.5 6.5 6.5 6.3 6.4 6.3 6.2 5.8 5.2
8.1 6.7 6.6 6.6 6.5 6.5 6.5 6.5 6.5 6.5 6.7 6.7 6.5 6.5 6.5 6.5 6.4 6.5 6.4 6.2 6.4 6.5 6.5 6.5 6.5 6.5 6.5 6.5 6.5 6.5 6.5 6.5 6.5 6.5 6.5 6.5 6.5 6.5 6.5 6.5 6.5 6.3 6.2 6.0 5.2
Wind_Speed
17 18 19 19 20 20 20 21 21 19 17 16 16 14 11 10 8 4 6 2 6 7 1 5 5 6 5 4 3 2 2 5 8 0 1 5 4 6 2 2 3 7 2 4 13
16 17 18 18 18 19 20 20 21 20 19 17 17 15 11 10 4 10 6 12 11 7 3 6 6 6 4 4 3 3 3 5 2 6 4 2 7 5 3 6 6 5 6 8 11
16 17 17 18 19 19 19 20 20 20 20 18 17 16 12 6 5 1 5 12 9 6 4 6 6 5 7 4 5 5 5 4 3 3 5 5 6 6 6 8 10 12 12 14 11
16 17 18 18 18 19 20 19 20 20 20 19 18 16 11 4 5 3 6 7 7 6 4 3 4 3 5 7 8 4 10 11 4 2 1 4 4 6 10 15 2 2 2 15 17
15 17 18 19 20 20 20 20 20 20 20 19 17 14 4 4 5 5 7 6 6 4 4 6 7 7 7 6 0 8 9 9 7 5 5 8 11 8 13 11 13 11 6 11 14
15 16 17 20 21 22 22 22 22 19 18 20 16 9 3 7 4 10 6 3 4 5 5 5 5 6 5 7 6 6 8 11 8 9 7 7 7 5 10 14 15 11 11 12 14
14 15 16 20 23 25 26 26 24 23 19 17 9 3 5 11 5 8 6 2 1 3 6 2 5 3 6 7 7 4 8 10 13 10 7 3 10 14 20 7 9 10 11 12 15
14 16 17 19 21 25 28 28 28 26 21 9 3 4 7 3 8 5 6 3 2 1 2 3 2 3 2 4 5 4 5 5 5 10 7 10 12 10 16 12 16 11 10 10 12
11 16 17 19 21 23 26 32 32 22 8 3 3 4 6 1 3 4 6 4 5 3 2 2 2 3 4 3 6 9 6 9 10 10 7 9 9 11 1 2 9 10 12 13 12
11 11 15 19 22 24 28 33 14 3 4 5 5 1 5 3 4 3 2 5 3 5 3 4 4 4 4 6 7 7 6 10 13 7 7 8 17 13 12 9 13 16 15 14 14
11 12 14 18 21 21 15 5 3 3 5 8 7 5 5 4 1 5 4 5 3 4 7 7 5 11 15 16 16 15 16 16 22 11 10 15 19 16 11 14 15 17 19 13 12
12 12 16 18 19 20 10 4 5 4 9 11 13 8 2 6 4 8 8 8 7 9 7 4 13 21 9 12 7 9 13 20 18 11 7 9 14 13 10 16 22 19 20 16 7
14 13 14 17 19 12 5 3 5 7 6 6 9 7 3 6 8 10 16 6 8 8 13 19 10 14 7 7 9 12 10 15 15 9 6 6 7 12 9 17 16 17 21 9 10
16 13 10 17 6 6 2 7 6 3 4 7 6 3 4 5 5 4 2 4 7 13 13 16 18 20 15 18 10 21 9 9 11 6 6 4 15 8 6 12 11 16 18 9 11
17 12 6 2 6 4 4 7 7 3 7 1 2 3 4 3 2 3 3 1 9 5 5 8 4 6 9 11 9 6 2 2 4 6 6 5 9 5 9 9 11 13 16 8 10
19 14 6 4 3 2 3 5 2 3 9 3 4 4 3 4 1 2 2 2 1 3 7 14 4 3 4 3 2 3 1 4 3 2 9 11 12 3 6 8 6 9 14 11 9
21 17 10 3 1 4 2 2 3 8 3 6 6 6 5 6 7 7 6 6 6 4 8 6 16 2 4 4 2 4 3 3 4 1 15 10 10 16 5 8 11 13 13 9 11
20 18 13 13 12 7 3 2 10 8 18 2 4 7 7 9 8 8 5 5 14 6 3 3 9 14 8 12 8 9 9 6 7 10 21 2 9 9 11 12 10 14 11 9 10
16 2 2 7 16 8 4 4 10 6 8 12 15 6 7 7 6 8 9 9 8 19 11 7 12 3 6 3 9 6 6 4 1 2 4 12 14 11 11 11 10 10 8 9 9
3 3 3 18 21 6 3 11 12 8 9 7 14 8 15 13 10 9 9 5 6 13 13 5 11 8 4 3 3 4 1 2 2 2 7 18 13 16 13 18 9 6 7 7 9
2 3 2 25 6 3 5 11 14 14 16 12 15 17 19 16 15 11 10 10 5 5 15 3 5 8 6 8 11 2 4 5 1 5 7 10 15 4 6 5 8 8 5 6 9
2 3 6 12 4 4 9 8 12 19 13 5 2 9 14 10 15 25 25 19 19 2 9 8 2 5 15 8 2 6 11 12 10 16 4 12 23 5 5 9 10 8 8 7 8
3 2 5 4 8 8 5 19 18 19 17 6 11 12 15 16 9 12 15 13 6 6 5 10 3 2 9 14 2 5 6 11 11 11 19 18 22 10 21 18 9 7 7 9 10
3 4 2 3 3 9 14 11 17 15 21 21 19 15 14 17 18 10 12 13 15 9 15 8 3 10 14 16 15 12 11 11 12 11 20 21 26 31 30 27 25 22 15 9 10
3 5 6 4 7 16 14 6 18 20 22 16 8 26 23 16 20 22 21 27 17 15 4 6 11 19 24 25 25 23 24 25 23 19 21 25 29 28 31 24 24 23 13 14 12
3 3 4 4 10 14 16 18 28 27 23 21 27 23 20 24 26 28 20 19 20 3 12 10 10 13 24 31 32 29 29 25 32 30 31 34 30 34 29 26 32 28 28 19 17
2 3 1 8 11 8 13 15 7 13 16 23 27 26 25 26 22 27 25 25 20 10 7 7 7 8 19 23 27 24 33 38 35 31 30 29 38 38 34 32 34 33 25 24 16
Wind_Direction
18 16 12 9 6 3 1 359 357 356 356 353 351 343 333 324 311 197 247 160 149 141 186 144 209 210 236 234 221 235 270 265 272 316 312 113 217 157 118 256 208 183 352 105 134
14 9 6 2 0 357 355 353 350 349 348 347 345 340 335 331 259 259 173 133 128 147 218 205 203 180 238 212 201 227 238 264 34 336 292 183 198 223 186 224 241 202 130 126 143
7 5 0 356 351 349 348 345 344 342 340 339 340 334 329 325 274 231 68 124 139 167 276 309 302 206 231 230 201 226 232 292 298 310 338 277 275 209 242 251 227 215 204 168 166
357 358 355 351 347 343 340 338 336 335 334 332 334 330 320 240 275 73 116 120 151 205 251 223 245 218 223 223 224 270 242 250 290 120 258 238 257 263 223 229 267 10 341 165 180
347 347 347 345 342 339 335 331 329 328 326 325 329 326 287 227 253 139 129 126 155 174 232 236 247 244 258 297 104 237 262 280 265 202 230 280 261 249 255 248 237 241 173 176 192
338 341 340 338 335 332 330 325 320 317 317 316 319 319 244 245 114 145 136 149 232 218 204 227 268 353 298 262 267 2 309 293 279 232 216 226 263 231 240 233 243 243 203 203 199
330 337 336 334 331 329 326 321 314 309 308 306 300 252 258 246 134 146 171 119 56 287 250 197 320 257 343 271 353 287 304 277 252 223 235 171 279 231 246 254 236 240 231 210 212
328 335 333 328 327 326 323 315 307 305 302 286 246 229 253 360 114 161 151 128 154 95 337 39 253 261 228 354 259 233 240 281 268 202 160 136 260 234 246 222 235 222 242 238 222
314 328 328 324 321 320 318 310 300 294 257 210 190 232 257 143 199 164 194 177 133 130 63 182 249 243 125 215 284 226 250 236 273 180 133 179 256 265 271 311 267 230 230 235 235
306 314 319 319 311 314 320 303 279 304 238 214 268 263 167 192 136 170 52 154 174 146 168 198 210 223 197 198 230 255 247 283 278 200 198 207 250 262 281 257 256 264 256 244 240
297 305 307 306 309 317 336 340 266 215 225 210 188 231 150 88 145 198 190 159 192 224 201 191 182 218 215 216 234 254 264 261 271 265 188 230 246 252 248 272 263 261 265 256 252
279 294 307 315 314 313 299 318 68 318 298 247 251 253 161 168 205 195 165 176 177 213 208 209 219 235 258 261 259 276 276 272 275 286 179 259 260 263 255 258 259 264 266 267 240
268 283 308 317 316 302 323 29 343 337 255 234 217 207 208 161 228 204 169 189 193 210 212 227 205 218 225 241 261 238 243 262 265 282 217 271 259 250 243 252 264 264 258 239 216
263 269 301 319 292 338 47 339 337 311 270 223 199 197 147 176 263 8 258 199 231 222 216 253 238 245 249 256 228 268 239 263 271 270 243 88 290 224 240 266 238 254 267 226 215
256 259 277 49 308 320 5 338 317 254 280 307 137 348 17 205 106 28 356 41 242 204 181 219 176 197 232 235 187 258 72 296 286 269 312 218 276 244 188 242 237 247 259 248 226
255 249 215 224 215 46 353 313 255 246 245 214 133 179 170 190 135 122 195 261 40 286 243 256 123 225 217 88 118 128 305 247 249 230 256 203 218 206 186 211 219 232 252 244 163
246 235 186 207 327 92 18 261 245 228 192 184 207 180 215 182 192 191 173 187 192 173 220 225 233 152 145 154 180 174 158 295 301 268 264 185 237 249 224 181 196 219 239 214 163
242 213 212 204 147 87 31 342 228 213 217 100 188 174 209 180 222 191 215 235 223 235 294 247 270 176 182 212 176 180 176 174 225 258 278 130 252 254 222 230 214 210 233 155 161
257 226 191 191 146 110 103 193 241 284 274 282 294 259 218 216 232 170 217 238 213 188 201 196 251 45 160 196 162 182 196 211 252 43 313 269 279 279 231 232 233 210 158 167 173
155 203 201 169 141 125 124 222 246 273 323 301 263 277 271 234 199 188 208 207 229 190 217 247 261 182 154 73 278 189 261 119 231 228 240 277 288 271 270 260 225 159 204 209 197
169 218 161 142 128 173 204 224 249 246 239 258 275 284 287 290 291 262 243 249 278 242 197 266 231 253 122 201 186 167 233 226 237 187 222 264 271 281 145 155 167 205 203 208 194
199 245 145 150 161 192 224 212 228 255 249 248 199 233 258 294 293 285 289 285 358 188 170 206 203 258 241 225 261 232 215 203 222 240 236 236 259 195 327 132 130 151 183 212 199
242 239 185 188 227 222 258 235 237 262 248 228 229 212 234 254 257 253 269 275 328 34 54 354 302 268 280 295 360 229 240 250 253 252 247 244 253 245 268 268 249 210 219 213 218
288 248 182 234 226 233 236 237 244 240 253 252 258 260 248 252 241 248 245 262 255 213 148 86 283 272 259 261 288 284 258 241 239 254 258 256 270 277 270 273 282 281 280 239 222
230 238 172 201 247 245 240 202 242 249 237 240 224 229 236 247 252 246 243 256 259 265 233 170 230 224 239 245 260 262 260 273 273 257 252 268 268 265 270 277 269 272 274 269 282
271 309 4 285 266 251 238 252 252 258 249 242 235 241 235 236 237 252 225 236 243 276 206 189 230 216 236 241 251 260 265 260 252 256 255 253 259 262 259 267 271 273 270 282 265
291 50 357 264 264 268 251 265 264 271 271 279 279 275 269 257 250 245 252 263 267 233 212 199 202 208 244 237 244 250 244 250 256 251 244 251 250 254 261 255 257 266 284 278 270